Retour au catalogue

NANOSAT(1)

ActifScienceSSO
NORAD 28493·PAYLOAD·🇪🇸 Spain

Lancé Dec 18, 2004 depuis Guiana Space Centre

Loading…

Prochains Passages (prochaines 24 heures)

TLE

FraisSource: Space-Track

Époque: Sep 14, 2026, 07:55 UTC

1 28493U 04049B   26257.33026616  .00000747  00000-0  10531-3 0  9993
2 28493  98.2407  36.2450 0004311  24.0739 336.0673 14.80307728168634

Suivez NANOSAT(1) en temps réel avec AllMySat

Download on the App Store